Weather History for KMQB - December, 2013

Change the Weather History Date:

Friday, December 6, 2013

  Actual Average (KBRL) Record (KBRL)
Temperature  
Mean Temperature 13 °F 32 °F  
Max Temperature 18 °F 40 °F 67 °F (1951)
Min Temperature 8 °F 24 °F -4 °F (1977)
Degree Days  
Heating Degree Days 52 33  
Month to date heating degree days 192  
Since 1 July heating degree days 1265  
Cooling Degree Days 0 0  
Month to date cooling degree days 0  
Year to date cooling degree days 1207  
Moisture  
Dew Point 6 °F    
Average Humidity 69    
Maximum Humidity 83    
Minimum Humidity 54    
Precipitation  
Precipitation 0.00 in 0.08 in 1.37 in (1998)
Month to date precipitation 0.47  
Year to date precipitation 36.86  
Sea Level Pressure  
Sea Level Pressure 30.46 in    
Wind  
Wind Speed 13 mph (NW)    
Max Wind Speed 17 mph    
Max Gust Speed 22 mph    
Visibility 10 miles    
Events      
T = Trace of Precipitation, MM = Missing Value Source: NWS Daily Summary

Daily Weather History Graph

Daily Weather History Graph

Search for Another Location

Airport or City:

Trip Planner

Search our weather history database for the weather conditions in past years. The results will help you decide how hot, cold, wet, or windy it might be!

Date:

Astronomy

Dec. 06, 2013 Rise Set
Actual Time 7:11 AM CST 4:35 PM CST
Civil Twilight 6:41 AM CST 5:06 PM CST
Nautical Twilight 6:07 AM CST 5:40 PM CST
Astronomical Twilight 5:34 AM CST 6:13 PM CST
Moon 10:16 AM CST (12/6) 9:08 PM CST (12/6)
Length of Visible Light 10h 24m
Length of Day
9h 23m
Waxing Crescent, 19% of the Moon is Illuminated
Dec 6
Waxing Crescent
Dec 9
First Quarter
Dec 17
Full
Dec 25
Last Quarter
Jan 1
New

Hourly Weather History & Observations

Time (CST) Temp. Windchill Dew Point Humidity Pressure Visibility Wind Dir Wind Speed Gust Speed Precip Events Conditions
12:15 AM 18.9 °F 4.3 °F 10.9 °F 71% 30.33 in 10.0 mi NW 16.1 mph - N/A   Scattered Clouds
12:35 AM 18.5 °F 6.1 °F 11.1 °F 73% 30.33 in 10.0 mi NW 11.5 mph 17.3 mph N/A   Scattered Clouds
12:55 AM 18.5 °F 6.8 °F 11.1 °F 73% 30.33 in 10.0 mi NW 10.4 mph - N/A   Mostly Cloudy
1:15 AM 18.3 °F 5.9 °F 10.9 °F 73% 30.34 in 10.0 mi NW 11.5 mph - N/A   Overcast
1:35 AM 18.1 °F 5.0 °F 10.4 °F 72% 30.36 in 10.0 mi NW 12.7 mph - N/A   Overcast
1:55 AM 18.0 °F 3.1 °F 9.7 °F 70% 30.35 in 10.0 mi NNW 16.1 mph - N/A   Scattered Clouds
2:15 AM 17.6 °F 3.2 °F 9.3 °F 70% 30.38 in 10.0 mi NNW 15.0 mph - N/A   Clear
2:35 AM 17.6 °F 3.7 °F 9.3 °F 70% 30.37 in 10.0 mi NNW 13.8 mph - N/A   Clear
2:55 AM 17.2 °F 3.9 °F 9.1 °F 71% 30.36 in 10.0 mi NW 12.7 mph - N/A   Clear
3:15 AM 17.2 °F 4.5 °F 9.3 °F 71% 30.36 in 10.0 mi NNW 11.5 mph - N/A   Clear
3:35 AM 16.7 °F 2.6 °F 8.4 °F 70% 30.36 in 10.0 mi NNW 13.8 mph - N/A   Clear
3:55 AM 16.5 °F 1.3 °F 8.4 °F 70% 30.36 in 10.0 mi NNW 16.1 mph - N/A   Clear
4:15 AM 16.0 °F 0.6 °F 8.4 °F 72% 30.37 in 10.0 mi NW 16.1 mph - N/A   Scattered Clouds
4:35 AM 15.8 °F 1.4 °F 8.2 °F 72% 30.37 in 10.0 mi NNW 13.8 mph - N/A   Scattered Clouds
4:55 AM 15.6 °F -0.4 °F 7.7 °F 71% 30.38 in 10.0 mi NNW 17.3 mph - N/A   Mostly Cloudy
5:15 AM 15.3 °F 0.8 °F 7.7 °F 72% 30.39 in 10.0 mi NNW 13.8 mph 19.6 mph N/A   Scattered Clouds
5:35 AM 14.9 °F 0.9 °F 7.5 °F 73% 30.38 in 10.0 mi NW 12.7 mph - N/A   Mostly Cloudy
5:55 AM 14.2 °F -2.3 °F 7.2 °F 74% 30.39 in 10.0 mi NNW 17.3 mph - N/A   Overcast
6:15 AM 14.0 °F -1.4 °F 7.3 °F 75% 30.40 in 10.0 mi NNW 15.0 mph - N/A   Overcast
6:35 AM 13.8 °F -1.7 °F 6.8 °F 74% 30.39 in 10.0 mi NNW 15.0 mph - N/A   Overcast
6:55 AM 13.6 °F -2.4 °F 6.8 °F 74% 30.42 in 10.0 mi NNW 16.1 mph - N/A   Overcast
7:15 AM 13.6 °F -1.9 °F 6.8 °F 74% 30.42 in 10.0 mi NNW 15.0 mph - N/A   Overcast
7:35 AM 13.1 °F -2.0 °F 6.4 °F 75% 30.42 in 10.0 mi NW 13.8 mph - N/A   Overcast
7:55 AM 13.1 °F -0.7 °F 6.4 °F 75% 30.43 in 10.0 mi NNW 11.5 mph 20.7 mph N/A   Overcast
8:15 AM 13.1 °F -3.1 °F 5.5 °F 72% 30.45 in 10.0 mi NNW 16.1 mph - N/A   Overcast
8:35 AM 13.1 °F -1.4 °F 5.5 °F 72% 30.45 in 10.0 mi NNW 12.7 mph - N/A   Overcast
8:55 AM 13.1 °F -2.0 °F 5.7 °F 72% 30.46 in 10.0 mi NNW 13.8 mph - N/A   Overcast
9:15 AM 13.3 °F -2.4 °F 5.5 °F 71% 30.45 in 10.0 mi NNW 15.0 mph - N/A   Overcast
9:35 AM 13.5 °F -3.2 °F 5.4 °F 70% 30.46 in 10.0 mi NNW 17.3 mph - N/A   Overcast
9:55 AM 14.0 °F 0.5 °F 5.4 °F 69% 30.46 in 10.0 mi NNW 11.5 mph - N/A   Scattered Clouds
10:15 AM 14.0 °F -1.4 °F 5.5 °F 69% 30.46 in 10.0 mi NNW 15.0 mph 21.9 mph N/A   Scattered Clouds
10:35 AM 14.0 °F -0.2 °F 4.8 °F 67% 30.47 in 10.0 mi NNW 12.7 mph 18.4 mph N/A   Overcast
10:55 AM 14.4 °F -1.0 °F 4.8 °F 66% 30.46 in 10.0 mi NNW 15.0 mph - N/A   Scattered Clouds
11:15 AM 14.7 °F 0.1 °F 4.8 °F 65% 30.47 in 10.0 mi NNW 13.8 mph - N/A   Clear
11:35 AM 14.9 °F 0.3 °F 5.0 °F 65% 30.43 in 10.0 mi North 13.8 mph - N/A   Clear
11:55 AM 14.9 °F 0.9 °F 4.8 °F 64% 30.47 in 10.0 mi NNW 12.7 mph 17.3 mph N/A   Mostly Cloudy
12:15 PM 15.8 °F 2.7 °F 5.0 °F 62% 30.44 in 10.0 mi NNW 11.5 mph - N/A   Scattered Clouds
12:35 PM 15.8 °F 1.4 °F 5.2 °F 63% 30.45 in 10.0 mi NW 13.8 mph 18.4 mph N/A   Clear
12:55 PM 16.0 °F 3.6 °F 4.8 °F 61% 30.49 in 10.0 mi NNW 10.4 mph - N/A   Scattered Clouds
1:15 PM 16.5 °F 3.0 °F 4.8 °F 60% 30.45 in 10.0 mi NNW 12.7 mph - N/A   Scattered Clouds
1:35 PM 16.3 °F 2.1 °F 4.3 °F 59% 30.46 in 10.0 mi NW 13.8 mph - N/A   Clear
1:55 PM 16.5 °F 2.4 °F 4.6 °F 60% 30.43 in 10.0 mi NNW 13.8 mph 21.9 mph N/A   Clear
2:15 PM 17.2 °F 3.9 °F 4.8 °F 58% 30.45 in 10.0 mi NNW 12.7 mph 16.1 mph N/A   Scattered Clouds
2:35 PM 17.6 °F 3.7 °F 4.5 °F 56% 30.45 in 10.0 mi NW 13.8 mph 20.7 mph N/A   Scattered Clouds
2:55 PM 17.2 °F 1.7 °F 3.7 °F 56% 30.45 in 10.0 mi NNW 17.3 mph 20.7 mph N/A   Clear
3:15 PM 17.2 °F 2.7 °F 3.6 °F 55% 30.44 in 10.0 mi NNW 15.0 mph 21.9 mph N/A   Clear
3:35 PM 16.9 °F 3.4 °F 3.2 °F 55% 30.46 in 10.0 mi NNW 12.7 mph - N/A   Clear
3:55 PM 17.1 °F 3.0 °F 3.0 °F 54% 30.46 in 10.0 mi NNW 13.8 mph 18.4 mph N/A   Clear
4:15 PM 16.5 °F 2.4 °F 3.0 °F 55% 30.47 in 10.0 mi NNW 13.8 mph - N/A   Clear
4:35 PM 15.6 °F 3.2 °F 3.0 °F 58% 30.48 in 10.0 mi NNW 10.4 mph - N/A   Scattered Clouds
5:55 PM 14.9 °F 3.1 °F 3.7 °F 61% 30.51 in 10.0 mi NW 9.2 mph - N/A   Overcast
6:01 PM 15.8 °F 2.1 °F 3.2 °F 58% 30.52 in 10.0 mi NW 12.7 mph - N/A   Overcast
6:15 PM 15.3 °F 3.5 °F 3.7 °F 60% 30.52 in 10.0 mi NW 9.2 mph - N/A   Overcast
6:35 PM 14.9 °F 2.3 °F 4.1 °F 62% 30.52 in 10.0 mi NW 10.4 mph - N/A   Overcast
6:55 PM 14.0 °F -0.2 °F 4.1 °F 65% 30.53 in 10.0 mi NW 12.7 mph - N/A   Overcast
7:15 PM 13.5 °F -0.2 °F 4.1 °F 66% 30.54 in 10.0 mi NW 11.5 mph - N/A   Scattered Clouds
7:35 PM 13.1 °F 0.1 °F 4.5 °F 68% 30.54 in 10.0 mi NW 10.4 mph - N/A   Clear
7:55 PM 12.6 °F -2.0 °F 4.1 °F 69% 30.55 in 10.0 mi NW 12.7 mph - N/A   Clear
8:15 PM 12.2 °F -1.8 °F 4.5 °F 71% 30.55 in 10.0 mi NW 11.5 mph - N/A   Clear
8:35 PM 11.7 °F -2.5 °F 4.6 °F 73% 30.56 in 10.0 mi NW 11.5 mph - N/A   Clear
8:55 PM 11.3 °F -1.3 °F 4.6 °F 75% 30.57 in 10.0 mi NNW 9.2 mph - N/A   Clear
9:15 PM 11.1 °F 1.7 °F 4.6 °F 75% 30.58 in 10.0 mi NW 5.8 mph - N/A   Clear
9:35 PM 9.5 °F -2.6 °F 4.5 °F 80% 30.59 in 10.0 mi WNW 8.1 mph - N/A   Clear
9:55 PM 9.7 °F -3.3 °F 4.8 °F 81% 30.59 in 10.0 mi NW 9.2 mph - N/A   Clear
10:15 PM 9.1 °F -3.0 °F 4.5 °F 81% 30.61 in 10.0 mi WNW 8.1 mph - N/A   Clear
10:35 PM 8.6 °F -2.6 °F 4.1 °F 82% 30.61 in 10.0 mi WNW 6.9 mph - N/A   Clear
10:55 PM 8.4 °F -3.9 °F 4.1 °F 83% 30.62 in 10.0 mi NW 8.1 mph - N/A   Clear
11:15 PM 8.4 °F -3.9 °F 4.1 °F 83% 30.62 in 10.0 mi NW 8.1 mph - N/A   Clear
11:35 PM 9.1 °F -4.0 °F 4.5 °F 81% 30.63 in 10.0 mi NW 9.2 mph - N/A   Clear
11:55 PM 9.1 °F -3.0 °F 4.3 °F 81% 30.62 in 10.0 mi NW 8.1 mph - N/A   Clear